This is the latest recevied weather packets stored in our database for station/object K6LOT-13. If no packets are shown the sender has not sent any weather packets the latest 10 day(s).
| Time | Temp. | Humidity | Pressure | Rain* | Wind** | Luminosity | Snow |
|---|---|---|---|---|---|---|---|
| 1777480402 | 17.22° C | 62% | 1018.6 hPa | 0 mm | - | - | - |
| 1777480127 | 16.67° C | 64% | 1018.6 hPa | 0 mm | - | - | - |
| 1777479821 | 16.11° C | 65% | 1018.5 hPa | 0 mm | - | - | - |
| 1777479515 | 16.11° C | 65% | 1018.6 hPa | 0 mm | - | - | - |
| 1777478256 | 15° C | 65% | 1018.6 hPa | 0 mm | - | - | - |
| 1777477980 | 15° C | 66% | 1018.7 hPa | 0 mm | - | - | - |
| 1777477640 | 15° C | 66% | 1018.7 hPa | 0 mm | - | - | - |
| 1777476722 | 14.44° C | 65% | 1018.8 hPa | 0 mm | - | - | - |
| 1777476416 | 14.44° C | 65% | 1018.7 hPa | 0 mm | - | - | - |
| 1777476139 | 14.44° C | 65% | 1018.7 hPa | 0 mm | - | - | - |
| 1777475521 | 14.44° C | 65% | 1018.7 hPa | 0 mm | - | - | - |
| 1777473341 | 13.89° C | 68% | 1018.6 hPa | 0 mm | - | - | - |
| 1777473035 | 13.89° C | 69% | 1018.6 hPa | 0 mm | - | - | - |
| 1777469344 | 13.33° C | 69% | 1019 hPa | 0 mm | - | - | - |
| 1777469035 | 13.33° C | 69% | 1018.8 hPa | 0 mm | - | - | - |
| 1777468728 | 13.33° C | 69% | 1018.8 hPa | 0 mm | - | - | - |
| 1777468420 | 13.33° C | 69% | 1018.9 hPa | 0 mm | - | - | - |
| 1777468141 | 13.33° C | 69% | 1018.9 hPa | 0 mm | - | - | - |
| 1777466569 | 13.33° C | 69% | 1019 hPa | 0 mm | - | - | - |
| 1777466261 | 13.33° C | 69% | 1019 hPa | 0 mm | - | - | - |
| 1777465645 | 13.33° C | 70% | 1018.9 hPa | 0 mm | - | - | - |
| 1777465336 | 13.33° C | 70% | 1018.9 hPa | 0 mm | - | - | - |
| 1777465029 | 13.33° C | 70% | 1018.9 hPa | 0 mm | - | - | - |
| 1777464720 | 13.89° C | 71% | 1018.9 hPa | 0 mm | - | - | - |
| 1777464412 | 13.89° C | 71% | 1018.9 hPa | 0 mm | - | - | - |
* Rain latest hour (hover to see other rain measurements)
** Current wind speed in m/s (hover to see current wind gust speed)